• Join FlightAware (Why Join?)
  • Login
  • US Flag GB Flag 
16:17 EST


 

Airport Tracker/Info


-or-


 

Live Flight TrackerFlight Track Log ✈ SKW7439 ✈ 17-Aug-2013 ✈ KCOD - KSLC

Flight Track Log - Related Links

Times and Time Zones

All times are in EDT time to prevent confusion due to time zone crossing. See the SKW7439 flight status page for this flight to view local times or setup timezone preferences in your user account.

Time Position Orientation Groundspeed Altitude Reporting Facility
EDT Latitude Longitude Course Direction KTS MPH feet Rate Location/Type
20:37 44.1153 -109.3651 211° Southwest  Level Estimated
20:38 44.0342 -109.4328 211° Southwest  Level Estimated
20:39 43.9606 -109.4941 211° Southwest  Level Estimated
20:39 44.5886 -108.9369 42° Northeast 228 262 8,600  Level Salt Lake Center
20:40 43.8869 -109.5553 211° Southwest  Level Estimated
20:40 44.5292 -108.8981 155° Southeast 245 282 10,900  Level Salt Lake Center
20:41 43.8132 -109.6163 211° Southwest  Level Estimated
20:41 44.4619 -108.8664 161° South 251 289 12,400  Level Salt Lake Center
20:42 43.7394 -109.6772 211° Southwest  Level Estimated
20:42 44.3839 -108.8294 161° South 267 307 13,400  Level Salt Lake Center
20:43 43.6656 -109.7379 211° Southwest  Level Estimated
20:43 44.2917 -108.7750 157° South 339 390 14,600  Level Salt Lake Center
20:44 44.2003 -108.7842 184° South 346 398 15,800 1,328 Climbing Salt Lake Center
20:45 44.1286 -108.8819 224° Southwest 359 413 17,300 1,561 Climbing Salt Lake Center
20:46 44.0606 -108.9794 226° Southwest 355 409 19,000 1,805 Climbing Salt Lake Center
20:47 43.9869 -109.1019 230° Southwest 349 402 21,000 1,659 Climbing Salt Lake Center
20:48 43.9722 -109.2367 261° West 353 406 22,400 1,366 Climbing Salt Lake Center
20:49 43.9544 -109.3672 259° West 362 417 23,800 787 Climbing Salt Lake Center
20:50 43.8783 -109.4617 222° Southwest 371 427 24,000 98 Climbing Salt Lake Center
20:51 43.7939 -109.5697 223° Southwest 385 443 24,000  Level Salt Lake Center
20:52 43.7164 -109.6756 225° Southwest 406 467 24,000  Level Salt Lake Center
20:53 43.6428 -109.8189 235° Southwest 410 472 24,000  Level Salt Lake Center
20:54 43.5789 -109.9392 234° Southwest 406 467 24,000  Level Salt Lake Center
20:55 43.5075 -110.0514 229° Southwest 416 479 24,000  Level Salt Lake Center
20:56 43.4275 -110.1883 231° Southwest 413 475 24,000  Level Salt Lake Center
20:57 43.3592 -110.3069 232° Southwest 415 478 24,000  Level Salt Lake Center
20:58 43.2789 -110.4444 231° Southwest 415 478 24,000  Level Salt Lake Center
20:59 43.2072 -110.5731 233° Southwest 423 487 24,000  Level Salt Lake Center
21:00 43.1392 -110.6906 232° Southwest 416 479 24,000  Level Salt Lake Center
21:01 43.0628 -110.8339 234° Southwest 417 480 24,000  Level Salt Lake Center
21:02 43.0022 -110.9600 237° Southwest 415 478 24,000  Level Salt Lake Center
21:03 42.9264 -111.0725 227° Southwest 428 493 24,000  Level Salt Lake Center
21:04 42.8050 -111.1364 201° Southwest 419 482 24,000  Level Salt Lake Center
21:05 42.7008 -111.1883 200° South 427 491 24,000  Level Salt Lake Center
21:06 42.5894 -111.2439 200° South 427 491 24,000  Level Salt Lake Center
21:07 42.4778 -111.3019 201° Southwest 430 495 24,000  Level Salt Lake Center
21:08 42.3439 -111.3694 200° South 429 494 24,000  Level Salt Lake Center
21:09 42.2317 -111.4281 201° Southwest 432 497 24,000  Level Salt Lake Center
21:11 42.1319 -111.5125 212° Southwest 429 494 24,000  Level Salt Lake Center
21:12 42.0350 -111.6036 215° Southwest 426 490 24,000 -934 Level Salt Lake Center
21:13 41.9417 -111.6917 215° Southwest 415 478 22,100 -1,854 Descending Salt Lake Center
21:14 41.8483 -111.7775 214° Southwest 408 470 20,200 -1,854 Descending Salt Lake Center
21:15 41.7539 -111.8647 215° Southwest 414 476 18,300 -1,916 Descending Salt Lake Center
21:16 41.6522 -111.9550 214° Southwest 417 480 16,400 -1,610 Descending Salt Lake Center
21:17 41.5644 -112.0375 215° Southwest 413 475 15,000 -1,377 Descending Salt Lake Center
21:18 41.4481 -112.0453 183° South 394 453 13,600 -1,475 Descending Salt Lake Center
21:19 41.3342 -112.0356 176° South 386 444 12,100 -835 Descending Salt Lake Center
21:20 41.2483 -112.0250 175° South 370 426 12,000 -709 Descending Salt Lake Center
21:21 41.1458 -112.0156 176° South 306 352 10,600 -1,299 Descending Salt Lake Center
21:22 41.0689 -112.0064 175° South 285 328 9,100 -1,488 Descending Salt Lake Center
21:23 40.9892 -111.9994 176° South 267 307 7,600 -1,357 Descending Salt Lake Center
21:24 40.9294 -111.9914 174° South 232 267 6,500 -1,016 Descending Salt Lake Center
21:25 40.8742 -111.9853 175° South 171 197 5,500 -744 Descending Salt Lake Center
21:26 40.8417 -112.0042 204° Southwest 145 167 5,000 -634 Descending Salt Lake Center
21:27 40.8014 -111.9983 174° South 133 153 4,200 -676 Descending Salt Lake Center